Location: Newark
(25.6108°S, 54.5803°W)
Time: 09:50:46
(UTC+00:00)

deb Explorer IX - Pass Details

Date: 03 November 2020
Orbit: 538 x 1104 km, 38.8° (Epoch: 23 November)

Event Time Altitude Azimuth Distance (km) Brightness Sun altitude
Rises 20:43:42 0° 244° (WSW) 3,496 ? 15.0°
Reaches altitude 10° 20:47:11 10° 227° (SW) 2,436 ? 14.2°
Maximum altitude 20:51:12 19° 182° (S) 1,737 ? 13.4°
Drops below altitude 10° 20:54:51 10° 136° (SE) 2,161 ? 12.5°
Sets 20:57:42 0° 118° (ESE) 2,976 ? 11.9°
